669 
ASUS46 KSEW 240010
RWRWA 

WASHINGTON REGIONAL WEATHER ROUNDUP
NATIONAL WEATHER SERVICE SEATTLE WA
500 PM PDT TUE MAY 23 2017

NOTE:"FAIR" INDICATES FEW OR NO CLOUDS BELOW 12,000 FEET WITH NO 
SIGNIFICANT WEATHER AND/OR OBSTRUCTIONS TO VISIBILITY.

WAZ507-509-555>559-240100-
SEATTLE, TACOMA, EVERETT, AND VICINITY
  
CITY           SKY/WX    TMP DP  RH WIND       PRES   REMARKS
EVERETT        SUNNY     60  52  74 NW12G21   30.00R                  
6HR MIN TEMP:  60; 6HR MAX TEMP:  70;                                

BOEING FIELD   MOSUNNY   76  53  44 NE8       29.94R                  
6HR MIN TEMP:  71; 6HR MAX TEMP:  80;                                

RENTON         SUNNY     77  53  43 SW12G18   29.92F                  
6HR MIN TEMP:  70; 6HR MAX TEMP:  81;                                

SEATAC AIRPORT MOSUNNY   73  55  53 W9        29.95S                  
6HR MIN TEMP:  70; 6HR MAX TEMP:  78;                                

JBLM-MCCHORD   SUNNY     77  57  49 W22       29.95R                  
6HR MIN TEMP:  74; 6HR MAX TEMP:  82;                                

PUYALLUP         N/A     77  55  47 SW13      29.97R                  
BREMERTON      SUNNY     74  54  49 S8        29.94S                  
6HR MIN TEMP:  74; 6HR MAX TEMP:  80;                                

JBLM-FT LEWIS  SUNNY     74  51  44 W12G25    30.00R                  
6HR MIN TEMP:  51; 6HR MAX TEMP:  78;                                

TACOMA NARROWS SUNNY     71  55  56 SW5       29.96S                  
6HR MIN TEMP:  66; 6HR MAX TEMP:  76;                                

$$
 
WAZ001-503-506-510-514-515-240100-
NORTH INTERIOR
  
CITY           SKY/WX    TMP DP  RH WIND       PRES   REMARKS
BELLINGHAM     MOSUNNY   69  53  56 S9G21     29.94R                  
6HR MIN TEMP:  61; 6HR MAX TEMP:  70;                                

FRIDAY HARBOR  LGT RAIN  66  50  56 W13G31    29.97R                  
6HR MIN TEMP:  62; 6HR MAX TEMP:  74; 6HR PCP: TRACE;                

EASTSOUND      SUNNY     70  48  46 W12G22    29.94S                  
PORT ANGELES   PTSUNNY   53  50  89 NW22G39   30.03S                  
6HR MIN TEMP:  53; 6HR MAX TEMP:  63;                                

EDIZ HOOK      MOCLDY    55  49  79 NW33G41   30.01F                  
6HR MIN TEMP:  55; 6HR MAX TEMP:  58;                                

PORT TOWNSEND  FAIR      59  52  77 NW21G35   30.00S                  
NAS WHIDBEY    MOSUNNY   59  49  69 W23G37    30.04R                  
6HR MIN TEMP:  59; 6HR MAX TEMP:  63;                                

ARLINGTON      PTSUNNY   63  48  59 NW15G26   30.04R                  
6HR MIN TEMP:  63; 6HR MAX TEMP:  70;                                

BURLINGTON     SUNNY     64  52  63 SW10G22   29.97F                  
$$
 
WAZ020-022-039-040-504-511-512-240100-
SOUTHWEST INTERIOR
  
CITY           SKY/WX    TMP DP  RH WIND       PRES   REMARKS
SHELTON        SUNNY     69  52  54 SW25G35   29.96S                  
6HR MIN TEMP:  69; 6HR MAX TEMP:  79;                                

OLYMPIA        MOSUNNY   69  54  58 W18G25    30.01R                  
6HR MIN TEMP:  69; 6HR MAX TEMP:  79;                                

CHEHALIS       FAIR      68  54  60 NW10G25   30.05R                  
KELSO          MOSUNNY   66  55  67 W9G22     30.07R                  
6HR MIN TEMP:  66; 6HR MAX TEMP:  75;                                

VANCOUVER      SUNNY     80  47  31 NW15G21   29.98S                  
6HR MIN TEMP:  76; 6HR MAX TEMP:  85;                                

SCAPPOOSE, OR  SUNNY     76  51  41 NW13G21   29.99S                  
6HR MIN TEMP:  76; 6HR MAX TEMP:  83;                                

PORTLAND, OR   MOSUNNY   80  43  26 NW17      29.98S                  
6HR MIN TEMP:  74; 6HR MAX TEMP:  84;                                

$$
 
WAZ021-516-517-240100-
WASHINGTON COAST
  
CITY           SKY/WX    TMP DP  RH WIND       PRES   REMARKS
FORKS          CLOUDY    55  48  77 NW13G22   30.13S                  
6HR MIN TEMP:  53; 6HR MAX TEMP:  60; 6HR PCP: TRACE;                

HOQUIAM        CLOUDY    57  53  86 W17G28    30.10F                  
6HR MIN TEMP:  56; 6HR MAX TEMP:  63;                                

ASTORIA, OR    CLOUDY    57  51  80 NW14      30.14F                  
6HR MIN TEMP:  56; 6HR MAX TEMP:  62;                                

$$
 
WAZ019-023-024-040-567>569-240100-
CASCADE MOUNTAINS AND COLUMBIA GORGE
  
CITY           SKY/WX    TMP DP  RH WIND       PRES   REMARKS
STAMPEDE PASS  SUNNY     63  41  44 W12G25    30.01F                  
6HR MIN TEMP:  63; 6HR MAX TEMP:  70;                                

TROUTDALE, OR  SUNNY     81  39  22 NW16G26   29.96S                  
6HR MIN TEMP:  74; 6HR MAX TEMP:  87;                                

THE DALLES, OR SUNNY     91  41  17 W25G38    29.82F                  
6HR MIN TEMP:  78; 6HR MAX TEMP:  93;                                

$$

WAZ026-027-041>044-520-521-240100-
EAST SLOPES
  
CITY           SKY/WX    TMP DP  RH WIND       PRES   REMARKS
OMAK           SUNNY     88  40  18 S16G26    29.68F                  
6HR MIN TEMP:  74; 6HR MAX TEMP:  88;                                

WENATCHEE      SUNNY     88  26  10 W20       29.75F                  
6HR MIN TEMP:  78; 6HR MAX TEMP:  91;                                

ELLENSBURG     SUNNY     82  45  27 NW31G40   29.81F                  
6HR MIN TEMP:  76; 6HR MAX TEMP:  89;                                

YAKIMA         SUNNY     93  39  15 W16G25    29.77F                  
6HR MIN TEMP:  82; 6HR MAX TEMP:  95;                                

SUNNYSIDE ARPT CLEAR     91  49  24 S7        29.74F                  
6HR MIN TEMP:  76; 6HR MAX TEMP:  91;                                

$$

WAZ028-034-035-240100-
COLUMBIA BASIN
  
CITY           SKY/WX    TMP DP  RH WIND       PRES   REMARKS
EPHRATA        SUNNY     91  43  18 SW21      29.74F                  
6HR MIN TEMP:  80; 6HR MAX TEMP:  92;                                

MOSES LAKE     SUNNY     91  45  20 SW13G24   29.75F                  
6HR MIN TEMP:  80; 6HR MAX TEMP:  92;                                

PASCO          SUNNY     94  47  20 SW16G26   29.74F HX  90           
6HR MIN TEMP:  82; 6HR MAX TEMP:  95;                                

HERMISTON, OR  SUNNY     94  47  20 SW16G23   29.76F HX  90           
6HR MIN TEMP:  79; 6HR MAX TEMP:  94;                                

$$

WAZ036>038-240100-
NORTHEAST WASHINGTON
  
CITY           SKY/WX    TMP DP  RH WIND       PRES   REMARKS
SPOKANE GEIGER MOSUNNY   81  45  28 SW14G23   29.82F                  
6HR MIN TEMP:  76; 6HR MAX TEMP:  82;                                

SPOKANE FELTS  SUNNY     84  48  28 SW18      29.81F                  
6HR MIN TEMP:  77; 6HR MAX TEMP:  85;                                

FAIRCHILD AFB  SUNNY     80  47  31 SW18      29.82F                  
6HR MIN TEMP:  76; 6HR MAX TEMP:  80;                                

COEURDALENE,ID SUNNY     81  50  33 SW15      29.82F                  
6HR MIN TEMP:  76; 6HR MAX TEMP:  82;                                

DEER PARK      MOSUNNY   81  47  30 S20G26    29.80F                  
6HR MIN TEMP:  74; 6HR MAX TEMP:  83;                                

$$

WAZ029>033-240100-
SOUTHEAST WASHINGTON
  
CITY           SKY/WX    TMP DP  RH WIND       PRES   REMARKS
PULLMAN        SUNNY     79  47  32 SW12      29.89F                  
6HR MIN TEMP:  74; 6HR MAX TEMP:  80;                                

LEWISTON, ID   SUNNY     89  44  20 VRB5      29.81F                  
6HR MIN TEMP:  74; 6HR MAX TEMP:  89;                                

WALLA WALLA    SUNNY     90  49  24 SW14      29.80F                  
6HR MIN TEMP:  79; 6HR MAX TEMP:  90;                                

PENDLETON, OR  SUNNY     86  54  33 NW6       29.82F                  
6HR MIN TEMP:  78; 6HR MAX TEMP:  87;                                

$$